Date String (YYYY-MM-DD hh:mm:ss) UTC,Instrument flags,absolute air pressure of the measurement (hPa),sample flow rate (lpm),inlet stack bypass flow (lpm),air temperature of the measurement (°C),ambient temperature measured by the external sensor (°C),aerosol sample conditioner tube jacket temperature (°C),OPC LED temperature (°C),internal box temperature (°C),relative humidity of the measurement (%),span deviation,mass concentration of particles derived from Lorenz-Mie calculation of OPC scattering (μg/m³),mass concentration of particles derived from Lorenz-Mie calculation of OPC scattering (μg/m³),mass concentration of particles derived from Lorenz-Mie calculation of OPC scattering (μg/m³)
DateTimeUTC,F1_M11,P_M11,Q1_M11,Q2_M11,T1_M11,T2_M11,T3_M11,T4_M11,T5_M11,U1_M11,ZSPAN_M11,X0_M11,X2_M11,X1_M11
2024-03-13 02:00:00,SystemResetWarning,0822.4,5.00,000.00,023.4,022.6,000.0,031.9,025.2,14.5,0000.0,0007.48,0003.00,0001.33
2024-03-13 02:01:00,SystemResetWarning,0822.4,5.00,000.00,023.4,022.6,000.0,031.9,025.2,14.9,0000.0,0007.54,0003.03,0001.33
2024-03-13 02:02:00,SystemResetWarning,0822.4,5.00,000.00,023.4,022.6,000.0,031.9,025.2,15.0,0000.0,0007.47,0003.00,0001.33
2024-03-13 02:03:00,SystemResetWarning,0822.4,5.00,000.00,023.4,022.6,000.0,031.9,025.2,14.8,0000.0,0007.58,0003.01,0001.34
2024-03-13 02:04:00,SystemResetWarning,0822.4,5.01,000.00,023.4,022.6,000.0,031.9,025.2,14.9,0000.0,0007.85,0002.94,0001.36
2024-03-13 02:05:00,SystemResetWarning,0822.4,5.00,000.00,023.4,022.6,000.0,031.9,025.2,15.0,0000.0,0007.77,0002.94,0001.36
2024-03-13 02:06:00,SystemResetWarning,0822.5,5.00,000.00,023.4,022.6,000.0,031.9,025.2,15.0,0000.0,0007.77,0003.01,0001.36
2024-03-13 02:07:00,SystemResetWarning,0822.4,4.99,000.00,023.3,022.6,000.0,031.9,025.2,15.1,0000.0,0008.02,0003.08,0001.37
2024-03-13 02:08:00,SystemResetWarning,0822.6,4.99,000.00,023.3,022.5,000.0,031.9,025.2,15.3,0000.0,0008.62,0003.12,0001.36
2024-03-13 02:09:00,SystemResetWarning,0822.5,5.00,000.00,023.3,022.5,000.0,031.9,025.1,15.4,0000.0,0008.70,0003.16,0001.36
2024-03-13 02:10:00,SystemResetWarning,0822.5,5.01,000.00,023.3,022.5,000.0,031.9,025.1,15.4,0000.0,0009.55,0003.16,0001.36
2024-03-13 02:11:00,SystemResetWarning,0822.6,5.01,000.00,023.3,022.5,000.0,031.9,025.1,15.5,0000.0,0009.46,0003.13,0001.35
2024-03-13 02:12:00,SystemResetWarning,0822.9,5.01,000.00,023.3,022.5,000.0,031.9,025.1,15.7,0000.0,0009.53,0003.12,0001.35
2024-03-13 02:13:00,SystemResetWarning,0822.9,4.99,000.00,023.3,022.5,000.0,031.9,025.1,15.7,0000.0,0009.62,0003.17,0001.35
2024-03-13 02:14:00,SystemResetWarning,0822.8,4.99,000.00,023.3,022.5,000.0,031.9,025.1,15.8,0000.0,0010.45,0003.21,0001.36
2024-03-13 02:15:00,SystemResetWarning,0822.5,5.00,000.00,023.3,022.5,000.0,031.9,025.1,15.8,0000.0,0010.40,0003.26,0001.35
2024-03-13 02:16:00,SystemResetWarning,0822.4,5.00,000.00,023.3,022.5,000.0,031.9,025.1,15.8,0000.0,0010.64,0003.29,0001.36
2024-03-13 02:17:00,SystemResetWarning,0822.5,5.01,000.00,023.3,022.5,000.0,031.8,025.1,15.8,0000.0,0011.19,0003.29,0001.38
2024-03-13 02:18:00,SystemResetWarning,0822.6,5.00,000.00,023.3,022.5,000.0,031.8,025.1,15.8,0000.0,0011.80,0003.25,0001.38
2024-03-13 02:19:00,SystemResetWarning,0822.4,5.00,000.00,023.3,022.5,000.0,031.8,025.1,15.8,0000.0,0011.43,0003.21,0001.37
2024-03-13 02:20:00,SystemResetWarning,0822.4,5.00,000.00,023.3,022.5,000.0,031.8,025.1,15.6,0000.0,0011.36,0003.17,0001.37
2024-03-13 02:21:00,SystemResetWarning,0822.4,5.00,000.00,023.3,022.5,000.0,031.8,025.1,15.5,0000.0,0010.73,0003.16,0001.38
2024-03-13 02:22:00,SystemResetWarning,0822.4,4.99,000.00,023.3,022.5,000.0,031.8,025.1,15.4,0000.0,0010.42,0003.11,0001.38
2024-03-13 02:23:00,SystemResetWarning,0822.4,5.01,000.00,023.3,022.5,000.0,031.8,025.1,15.5,0000.0,0010.22,0003.06,0001.39
2024-03-13 02:24:00,SystemResetWarning,0822.4,5.01,000.00,023.3,022.5,000.0,031.8,025.1,15.4,0000.0,0010.12,0003.03,0001.40
2024-03-13 02:25:00,SystemResetWarning,0822.4,5.00,000.00,023.3,022.5,000.0,031.8,025.1,15.4,0000.0,0010.35,0003.00,0001.39
2024-03-13 02:26:00,SystemResetWarning,0822.4,5.00,000.00,023.3,022.6,000.0,031.8,025.1,15.4,0000.0,0009.99,0002.95,0001.38
2024-03-13 02:27:00,SystemResetWarning,0822.5,4.99,000.00,023.3,022.6,000.0,031.8,025.1,15.4,0000.0,0009.77,0002.96,0001.39
2024-03-13 02:28:00,SystemResetWarning,0822.5,4.99,000.00,023.3,022.6,000.0,031.8,025.1,15.5,0000.0,0009.52,0002.98,0001.39
2024-03-13 02:29:00,SystemResetWarning,0822.4,5.00,000.00,023.3,022.6,000.0,031.8,025.1,15.6,0000.0,0008.81,0002.93,0001.39
2024-03-13 02:30:00,SystemResetWarning,0822.4,5.01,000.00,023.3,022.6,000.0,031.8,025.1,15.7,0000.0,0009.41,0002.97,0001.40
2024-03-13 02:31:00,SystemResetWarning,0822.4,5.00,000.00,023.3,022.6,000.0,031.8,025.1,15.7,0000.0,0009.60,0003.02,0001.41
2024-03-13 02:32:00,SystemResetWarning,0822.4,5.01,000.00,023.3,022.6,000.0,031.8,025.1,15.7,0000.0,0009.57,0003.02,0001.41
2024-03-13 02:33:00,SystemResetWarning,0822.4,5.00,000.00,023.3,022.6,000.0,031.8,025.1,15.7,0000.0,0009.62,0003.02,0001.40
2024-03-13 02:34:00,SystemResetWarning,0822.4,5.00,000.00,023.3,022.6,000.0,031.8,025.1,15.6,0000.0,0009.97,0003.11,0001.41
2024-03-13 02:35:00,SystemResetWarning,0822.4,5.00,000.00,023.3,022.6,000.0,031.8,025.1,15.5,0000.0,0009.99,0003.12,0001.41
2024-03-13 02:36:00,SystemResetWarning,0822.4,4.99,000.00,023.3,022.6,000.0,031.8,025.1,15.6,0000.0,0009.37,0003.14,0001.43
2024-03-13 02:37:00,SystemResetWarning,0822.4,4.99,000.00,023.3,022.6,000.0,031.8,025.1,15.7,0000.0,0009.84,0003.15,0001.44
2024-03-13 02:38:00,SystemResetWarning,0822.5,5.01,000.00,023.3,022.5,000.0,031.8,025.1,15.7,0000.0,0009.94,0003.13,0001.46
2024-03-13 02:39:00,SystemResetWarning,0822.4,5.01,000.00,023.3,022.5,000.0,031.8,025.1,15.6,0000.0,0010.04,0003.13,0001.46
2024-03-13 02:40:00,SystemResetWarning,0822.4,5.00,000.00,023.3,022.5,000.0,031.8,025.1,15.7,0000.0,0010.13,0003.14,0001.44
2024-03-13 02:41:00,SystemResetWarning,0822.4,5.01,000.00,023.3,022.5,000.0,031.8,025.1,15.8,0000.0,0008.87,0003.16,0001.46
2024-03-13 02:42:00,SystemResetWarning,0822.4,5.00,000.00,023.3,022.5,000.0,031.8,025.1,15.9,0000.0,0008.51,0003.16,0001.46
2024-03-13 02:43:00,SystemResetWarning,0822.6,4.99,000.00,023.3,022.5,000.0,031.8,025.1,15.9,0000.0,0008.48,0003.16,0001.46
2024-03-13 02:44:00,SystemResetWarning,0822.4,5.00,000.00,023.3,022.5,000.0,031.8,025.1,15.8,0000.0,0008.90,0003.18,0001.49
2024-03-13 02:45:00,SystemResetWarning,0822.5,5.00,000.00,023.3,022.5,000.0,031.8,025.1,16.0,0000.0,0008.57,0003.16,0001.50
2024-03-13 02:46:00,SystemResetWarning,0822.6,5.00,000.00,023.3,022.5,000.0,031.8,025.1,16.0,0000.0,0008.59,0003.14,0001.52
2024-03-13 02:47:00,SystemResetWarning,0822.7,5.00,000.00,023.2,022.5,000.0,031.8,025.1,16.0,0000.0,0009.22,0003.16,0001.54
2024-03-13 02:48:00,SystemResetWarning,0822.5,5.00,000.00,023.2,022.5,000.0,031.8,025.1,16.1,0000.0,0008.82,0003.15,0001.55
2024-03-13 02:49:00,SystemResetWarning,0822.5,5.00,000.00,023.2,022.5,000.0,031.8,025.1,16.1,0000.0,0009.49,0003.14,0001.54
2024-03-13 02:50:00,SystemResetWarning,0822.5,5.00,000.00,023.2,022.5,000.0,031.8,025.1,16.0,0000.0,0009.79,0003.05,0001.53
2024-03-13 02:51:00,SystemResetWarning,0822.4,4.99,000.00,023.2,022.5,000.0,031.8,025.1,16.1,0000.0,0009.76,0003.08,0001.54
2024-03-13 02:52:00,SystemResetWarning,0822.5,5.01,000.00,023.2,022.5,000.0,031.8,025.0,16.1,0000.0,0010.44,0003.10,0001.54
2024-03-13 02:53:00,SystemResetWarning,0822.6,5.01,000.00,023.2,022.4,000.0,031.8,025.0,16.1,0000.0,0011.01,0003.07,0001.54
2024-03-13 02:54:00,SystemResetWarning,0822.4,5.00,000.00,023.2,022.4,000.0,031.8,025.0,16.1,0000.0,0011.10,0003.07,0001.54
2024-03-13 02:55:00,SystemResetWarning,0822.4,5.00,000.00,023.2,022.5,000.0,031.8,025.1,16.1,0000.0,0010.70,0003.08,0001.53
2024-03-13 02:56:00,SystemResetWarning,0822.4,4.99,000.00,023.2,022.5,000.0,031.8,025.1,16.1,0000.0,0010.76,0003.07,0001.52
2024-03-13 02:57:00,SystemResetWarning,0822.4,4.99,000.00,023.2,022.5,000.0,031.8,025.1,15.9,0000.0,0010.89,0003.06,0001.51
2024-03-13 02:58:00,SystemResetWarning,0822.4,5.01,000.00,023.2,022.5,000.0,031.8,025.1,15.7,0000.0,0010.27,0003.01,0001.49
2024-03-13 02:59:00,SystemResetWarning,0822.4,5.00,000.00,023.2,022.5,000.0,031.8,025.1,15.8,0000.0,0009.99,0002.98,0001.48
